Oconto, WI

1:31 AM CST on January 22, 2017 (GMT -0600)
Oconto Municipal

Weather History for KOCQ - April, 2014

Change the Weather History Date:

Wednesday, April 16, 2014

  Actual Average Record
Temperature  
Mean Temperature 26 °F -  
Max Temperature 36 °F 56 °F 71 °F (2016)
Min Temperature 16 °F 33 °F 16 °F (2014)
Degree Days  
Heating Degree Days 39    
Moisture  
Dew Point 24 °F    
Average Humidity 83    
Maximum Humidity 94    
Minimum Humidity 58    
Precipitation  
Precipitation 0.00 in - - ()
Sea Level Pressure  
Sea Level Pressure 30.23 in    
Wind  
Wind Speed 5 mph (ESE)    
Max Wind Speed 18 mph    
Max Gust Speed 29 mph    
Visibility 9 miles    
Events      
Averages and records for this station are not official NWS values.
T = Trace of Precipitation, MM = Missing Value Source: NWS Daily Summary

Daily Weather History Graph

Daily Weather History Graph

Search for Another Location

Airport or City:

Trip Planner

Search our weather history database for the weather conditions in past years. The results will help you decide how hot, cold, wet, or windy it might be!

Date:

Astronomy

Apr. 16, 2014 Rise Set
Actual Time 6:05 AM CDT 7:38 PM CDT
Civil Twilight 5:34 AM CDT 8:08 PM CDT
Nautical Twilight 4:57 AM CDT 8:46 PM CDT
Astronomical Twilight 4:17 AM CDT 9:26 PM CDT
Moon 9:25 PM CDT (4/16) 6:49 AM CDT (4/16)
Length of Visible Light 14h 34m
Length of Day
13h 32m
Full, 98% of the Moon is Illuminated
Apr 16
Full
Apr 22
Last Quarter
Apr 29
New
May 6
First Quarter
May 14
Full

Hourly Weather History & Observations

Time (CDT) Temp. Windchill Dew Point Humidity Pressure Visibility Wind Dir Wind Speed Gust Speed Precip Events Conditions
12:15 AM 19.8 °F - 16.9 °F 89% 30.19 in 10.0 mi Calm Calm - N/A   Clear
12:35 AM 19.0 °F - 17.1 °F 92% 30.19 in 10.0 mi Calm Calm - N/A   Clear
12:55 AM 18.0 °F - 16.3 °F 93% 30.20 in 10.0 mi Calm Calm - N/A   Clear
1:15 AM 18.9 °F - 16.2 °F 89% 30.20 in 10.0 mi Calm Calm - N/A   Clear
1:35 AM 18.5 °F - 16.5 °F 92% 30.20 in 10.0 mi Calm Calm - N/A   Clear
1:55 AM 18.1 °F - 15.8 °F 91% 30.20 in 10.0 mi Calm Calm - N/A   Clear
2:15 AM 18.0 °F - 16.2 °F 93% 30.20 in 10.0 mi Calm Calm - N/A   Clear
2:35 AM 18.3 °F - 16.3 °F 92% 30.21 in 10.0 mi Calm Calm - N/A   Clear
2:55 AM 17.2 °F - 14.9 °F 91% 30.21 in 10.0 mi Calm Calm - N/A   Clear
3:15 AM 17.2 °F - 15.3 °F 92% 30.21 in 10.0 mi Calm Calm - N/A   Clear
3:35 AM 17.4 °F - 16.0 °F 94% 30.22 in 10.0 mi Calm Calm - N/A   Clear
3:55 AM 17.4 °F - 15.4 °F 92% 30.22 in 10.0 mi Calm Calm - N/A   Clear
4:15 AM 17.4 °F - 15.8 °F 93% 30.23 in 10.0 mi Calm Calm - N/A   Clear
4:35 AM 16.7 °F - 15.3 °F 94% 30.23 in 10.0 mi Calm Calm - N/A   Clear
5:15 AM 17.4 °F - 15.8 °F 93% 30.25 in 10.0 mi Calm Calm - N/A   Scattered Clouds
5:35 AM 16.5 °F - 14.5 °F 92% 30.25 in 10.0 mi Calm Calm - N/A   Scattered Clouds
5:55 AM 16.3 °F - 14.7 °F 93% 30.25 in 10.0 mi Calm Calm - N/A   Clear
6:15 AM 16.7 °F - 14.9 °F 93% 30.26 in 10.0 mi Calm Calm - N/A   Clear
6:35 AM 17.1 °F - 15.6 °F 94% 30.27 in 10.0 mi Calm Calm - N/A   Clear
6:55 AM 18.5 °F - 16.9 °F 93% 30.27 in 10.0 mi Calm Calm - N/A   Scattered Clouds
7:15 AM 21.2 °F - 19.4 °F 93% 30.28 in 10.0 mi Calm Calm - N/A   Overcast
7:35 AM 24.3 °F - 22.5 °F 93% 30.29 in 10.0 mi Calm Calm - N/A   Overcast
7:55 AM 27.3 °F 23.4 °F 23.7 °F 86% 30.29 in 10.0 mi SSE 3.5 mph - N/A   Overcast
8:15 AM 29.3 °F 23.2 °F 23.4 °F 78% 30.30 in 10.0 mi South 5.8 mph - N/A   Overcast
8:35 AM 30.7 °F 24.9 °F 23.7 °F 75% 30.30 in 10.0 mi South 5.8 mph - N/A   Overcast
8:55 AM 31.1 °F 25.4 °F 23.9 °F 75% 30.30 in 10.0 mi SSE 5.8 mph - N/A   Overcast
9:15 AM 32.0 °F 26.4 °F 24.8 °F 75% 30.30 in 10.0 mi SSE 5.8 mph - N/A   Overcast
9:35 AM 32.0 °F 24.2 °F 25.7 °F 78% 30.30 in 10.0 mi SE 9.2 mph - N/A   Overcast
9:55 AM 32.5 °F 26.2 °F 26.8 °F 79% 30.30 in 10.0 mi SSE 6.9 mph - N/A   Overcast
10:15 AM 32.9 °F 26.7 °F 25.9 °F 75% 30.30 in 10.0 mi SSE 6.9 mph - N/A   Overcast
10:35 AM 32.0 °F 23.0 °F 27.3 °F 83% 30.30 in 2.0 mi SE 11.5 mph - N/A   Overcast
10:55 AM 31.8 °F 23.3 °F 27.0 °F 82% 30.30 in 2.5 mi SSE 10.4 mph - N/A   Overcast
11:15 AM 32.0 °F 22.5 °F 28.0 °F 85% 30.29 in 2.5 mi SE 12.7 mph - N/A   Overcast
11:35 AM 32.0 °F 24.2 °F 28.4 °F 87% 30.29 in 4.0 mi ESE 9.2 mph - N/A   Overcast
11:55 AM 32.0 °F 23.0 °F 28.4 °F 87% 30.28 in 7.0 mi East 11.5 mph 16.1 mph N/A   Overcast
12:15 PM 32.5 °F 24.2 °F 28.6 °F 85% 30.27 in 7.0 mi ESE 10.4 mph 17.3 mph N/A   Overcast
12:35 PM 33.1 °F 23.9 °F 28.4 °F 83% 30.27 in 10.0 mi ESE 12.7 mph 16.1 mph N/A   Overcast
1:15 PM 33.8 °F 24.8 °F 28.2 °F 80% 30.26 in 10.0 mi ESE 12.7 mph - N/A   Overcast
1:35 PM 33.6 °F 23.7 °F 28.9 °F 83% 30.26 in 4.0 mi ESE 15.0 mph 19.6 mph N/A   Overcast
1:55 PM 34.2 °F 25.7 °F 28.4 °F 79% 30.25 in 10.0 mi ESE 11.5 mph 19.6 mph N/A   Overcast
2:15 PM 34.7 °F 26.4 °F 28.0 °F 77% 30.24 in 10.0 mi ESE 11.5 mph 18.4 mph N/A   Overcast
2:35 PM 34.9 °F 25.7 °F 27.7 °F 75% 30.23 in 10.0 mi SE 13.8 mph - N/A   Overcast
2:55 PM 35.6 °F 26.2 °F 28.0 °F 74% 30.23 in 10.0 mi ESE 15.0 mph - N/A   Overcast
3:15 PM 36.0 °F 27.1 °F 27.5 °F 71% 30.22 in 10.0 mi SE 13.8 mph 19.6 mph N/A   Mostly Cloudy
3:35 PM 36.1 °F 27.3 °F 27.3 °F 70% 30.23 in 10.0 mi SE 13.8 mph 23.0 mph N/A   Scattered Clouds
3:55 PM 35.6 °F 25.9 °F 26.4 °F 69% 30.22 in 10.0 mi SE 16.1 mph 25.3 mph N/A   Mostly Cloudy
4:15 PM 35.6 °F 26.2 °F 25.3 °F 66% 30.21 in 10.0 mi SE 15.0 mph 21.9 mph N/A   Overcast
4:35 PM 35.6 °F 25.9 °F 24.1 °F 63% 30.21 in 10.0 mi SE 16.1 mph 23.0 mph N/A   Overcast
4:55 PM 35.6 °F 26.2 °F 23.9 °F 62% 30.21 in 10.0 mi SE 15.0 mph 20.7 mph N/A   Overcast
5:15 PM 36.0 °F 26.7 °F 23.4 °F 60% 30.21 in 10.0 mi SE 15.0 mph 19.6 mph N/A   Overcast
5:35 PM 36.0 °F 26.3 °F 23.2 °F 60% 30.19 in 10.0 mi SE 16.1 mph 21.9 mph N/A   Overcast
5:55 PM 36.5 °F 26.3 °F 23.0 °F 58% 30.18 in 10.0 mi SE 18.4 mph 28.8 mph N/A   Overcast
6:15 PM 36.5 °F 26.7 °F 23.0 °F 58% 30.18 in 10.0 mi SE 17.3 mph 24.2 mph N/A   Overcast
6:35 PM 35.6 °F 26.2 °F 24.8 °F 65% 30.19 in 10.0 mi ESE 15.0 mph 20.7 mph N/A   Overcast
6:55 PM 34.2 °F 24.8 °F 26.6 °F 74% 30.19 in 10.0 mi ESE 13.8 mph 19.6 mph N/A   Overcast
7:10 PM 33.8 °F 25.3 °F 26.4 °F 74% 30.19 in 10.0 mi East 11.5 mph - N/A   Overcast
7:35 PM 33.4 °F 25.9 °F 27.1 °F 78% 30.19 in 10.0 mi ESE 9.2 mph - N/A   Overcast
7:55 PM 33.1 °F 26.1 °F 28.2 °F 82% 30.20 in 10.0 mi East 8.1 mph - N/A   Overcast
8:10 PM 32.9 °F 27.5 °F 28.4 °F 84% 30.21 in 10.0 mi NE 5.8 mph - N/A   Overcast
8:35 PM 32.5 °F 25.5 °F 28.9 °F 87% 30.21 in 10.0 mi East 8.1 mph - N/A   Overcast
8:55 PM 32.4 °F 25.3 °F 29.3 °F 88% 30.20 in 10.0 mi East 8.1 mph - N/A   Overcast
9:15 PM 32.2 °F 24.4 °F 29.7 °F 90% 30.21 in 10.0 mi East 9.2 mph - N/A   Overcast
9:35 PM 32.4 °F 26.9 °F 29.7 °F 90% 30.22 in 10.0 mi East 5.8 mph - N/A   Overcast
9:55 PM 32.5 °F 26.2 °F 29.7 °F 89% 30.21 in 10.0 mi East 6.9 mph - N/A   Overcast
10:15 PM 32.5 °F 26.2 °F 29.5 °F 88% 30.21 in 10.0 mi East 6.9 mph - N/A   Overcast
10:35 PM 32.5 °F 26.2 °F 29.8 °F 90% 30.20 in 10.0 mi East 6.9 mph - N/A   Mostly Cloudy
10:55 PM 32.9 °F 25.9 °F 29.8 °F 88% 30.19 in 10.0 mi East 8.1 mph - N/A   Mostly Cloudy
11:15 PM 32.7 °F 27.3 °F 29.8 °F 89% 30.19 in 10.0 mi East 5.8 mph - N/A   Mostly Cloudy
11:35 PM 32.9 °F 28.5 °F 29.8 °F 88% 30.19 in 10.0 mi East 4.6 mph - N/A   Mostly Cloudy
11:55 PM 32.9 °F 28.5 °F 29.8 °F 88% 30.19 in 10.0 mi East 4.6 mph - N/A   Overcast